Location: Noverd
(38.0910°N, 121.6877°W)
Time: 03:43:45
(UTC+00:00)

Cosmos 990 Rocket - Pass Details

Date: 13 February 2026
Orbit: 742 x 763 km, 74.0° (Epoch: 7 March)

Event Time Altitude Azimuth Distance (km) Brightness Sun altitude
Rises 13:15:17 0° 190° (S) 3,205 7.1 -21.0°
Reaches altitude 10° 13:17:39 10° 188° (S) 2,286 6.4 -20.5°
Maximum altitude 13:22:48 70° 106° (ESE) 811 4.2 -19.5°
Drops below altitude 10° 13:28:01 10° 23° (NNE) 2,304 6.7 -18.5°
Sets 13:30:24 0° 21° (NNE) 3,234 7.5 -18.0°
